Home > Weather > Sawai Madhopur > Past weeks

Flag for India Past Weather in Sawai Madhopur, Rajasthan, India — Yesterday and Last 2 Weeks

Now
90 °F

Passing clouds.


Feels Like: 95 °F
Forecast: 84 / 103 °F
Wind: 3 mph from North

Location: Jaipur / Sanganer

Current Time: Jun 25, 2016 at 5:27:24 AM

Latest Report: Jun 25, 2016 at 4:00 AM


Visibility: 2 mi

Pressure: 29.59 "Hg

Humidity: 52%

Dew Point: 70 °F

Location of Sawai MadhopurLocation

Past Weather in Sawai Madhopur — Graph

°F

Sawai Madhopur Temperature Yesterday

Maximum temperature yesterday: 104 °F (at 3:30 PM)
Minimum temperature yesterday: 86 °F (at 4:00 AM)
Average temperature yesterday: 94 °F

High & Low Weather Summary for the Past Weeks

 TemperatureHumidityPressure
High108 °F (Jun 10, 1:00 PM)89% (Jun 21, 9:00 PM)29.74 "Hg (Jun 21, 9:00 PM)
Low81 °F (Jun 21, 5:30 PM)18% (Jun 10, 4:30 PM)29.45 "Hg (Jun 15, 4:00 PM)
Average94 °F42%29.58 "Hg
* Reported Jun 10 5:00 AM — Jun 25 4:00 AM, Sawai Madhopur, Weather by CustomWeather, © 2016

Note: Actual official high and low records may vary slightly from our data, if they occured in-between our weather recording intervals... More about our weather records

Advertising

Sawai Madhopur Weather History for the Previous 24 Hours

Scroll right to see more
 ConditionsComfort  
Time TempWeatherWind HumidityBarometerVisibility
4:00 AM
Sat, Jun 25
90 °FPassing clouds.3 mph52%29.59 "Hg2 mi
3:00 AM90 °FPassing clouds.7 mph52%29.59 "Hg2 mi
2:00 AM90 °FPassing clouds.8 mph49%29.56 "Hg2 mi
1:00 AM90 °FPassing clouds.7 mph49%29.59 "Hg2 mi
12:00 AM91 °FPassing clouds.10 mph46%29.59 "Hg2 mi
11:30 PM
Fri, Jun 24
91 °FPassing clouds.10 mph49%29.59 "Hg3 mi
11:00 PM91 °FPassing clouds.10 mph49%29.59 "Hg3 mi
10:30 PM91 °FPassing clouds.9 mph49%29.59 "Hg3 mi
10:00 PM91 °FPassing clouds.12 mph46%29.59 "Hg3 mi
9:30 PM93 °FPassing clouds.10 mph44%29.56 "Hg3 mi
9:00 PM95 °FPassing clouds.13 mph39%29.56 "Hg3 mi
8:00 PM97 °FPassing clouds.16 mph39%29.53 "Hg3 mi
7:30 PM102 °FScattered clouds.5 mph29%29.53 "Hg3 mi
7:00 PM102 °FScattered clouds.5 mph29%29.50 "Hg3 mi
6:00 PM102 °FScattered clouds.8 mph31%29.50 "Hg2 mi
5:30 PM104 °FScattered clouds.7 mph28%29.50 "Hg2 mi
5:00 PM102 °FScattered clouds.7 mph31%29.50 "Hg2 mi
4:00 PM102 °FScattered clouds.9 mph33%29.53 "Hg2 mi
3:30 PM104 °FScattered clouds.8 mph31%29.53 "Hg2 mi
3:00 PM102 °FScattered clouds.8 mph35%29.56 "Hg2 mi
2:30 PM102 °FScattered clouds.7 mph35%29.56 "Hg2 mi
2:00 PM102 °FScattered clouds.12 mph37%29.59 "Hg2 mi
1:30 PM100 °FScattered clouds.10 mph37%29.59 "Hg2 mi
1:00 PM99 °FScattered clouds.13 mph39%29.59 "Hg2 mi
12:00 PM97 °FScattered clouds.14 mph42%29.62 "Hg2 mi
11:00 AM93 °FBroken clouds.13 mph47%29.65 "Hg2 mi
10:30 AM93 °FBroken clouds.17 mph47%29.65 "Hg2 mi
10:00 AM93 °FBroken clouds.15 mph47%29.65 "Hg2 mi
9:30 AM91 °FBroken clouds.12 mph49%29.65 "Hg1 mi
9:00 AM90 °FBroken clouds.7 mph55%29.65 "Hg1 mi
8:30 AM88 °FBroken clouds.7 mph59%29.65 "Hg1 mi
8:00 AM88 °FBroken clouds.7 mph55%29.62 "Hg1 mi
7:30 AM88 °FBroken clouds.7 mph55%29.62 "Hg1 mi
7:00 AM86 °FBroken clouds.3 mph62%29.62 "Hg1 mi
6:00 AM86 °FPartly cloudy.5 mph59%29.59 "Hg1 mi
5:00 AM86 °FPartly cloudy.6 mph59%29.59 "Hg1 mi
Weather by CustomWeather, © 2016

See weather overviewHow to use our weather pages